[Iaude] MPEC S150: 2023 RS29 [a=1.23,e=0.17,i=10.2,H=27.5]
    mpec at marsden.cfa.harvard.edu 
    mpec at marsden.cfa.harvard.edu
       
    Thu Sep 21 12:22:55 EDT 2023
    
    
  
M.P.E.C. 2023-S150                           Issued 2023 September 21, 16:21 UT
     The Minor Planet Electronic Circulars contain information on unusual
         minor planets, routine data on comets and natural satellites,
         and occasional editorial announcements.  They are published
    on behalf of Division F of the International Astronomical Union by the
          Minor Planet Center, Smithsonian Astrophysical Observatory,
                          Cambridge, MA 02138, U.S.A.
			  
             Prepared using the Tamkin Foundation Computer Network
                              MPC at CFA.HARVARD.EDU
            URL https://www.minorplanetcenter.net/    ISSN 1523-6714
                                   2023 RS29                                    
Observations:
     K23R29S* C2023 09 15.49902000 51 27.688-14 31 05.02         20.58wXES150F51
     K23R29S  C2023 09 15.51032100 51 34.802-14 33 58.06         20.85wXES150F51
     K23R29S  C2023 09 15.52164200 51 41.939-14 36 50.46         21.09GVES150F51
     K23R29S  C2023 09 15.53301400 51 49.100-14 39 43.13         20.96GVES150F51
     K23R29S  C2023 09 15.60285500 52 33.739-14 57 08.97         20.91GVES150F51
     K23R29S  C2023 09 15.60349500 52 34.178-14 57 18.61         20.47GVES150F51
     K23R29S !C2023 09 16.10763 00 58 48.02 -17 00 04.2          20.9 GVES150J04
     K23R29S !C2023 09 16.12144 00 58 56.17 -17 03 16.2          20.9 GVES150J04
     K23R29S  C2023 09 18.47201801 23 01.901-24 35 37.51         21.58GVES150F52
     K23R29S  C2023 09 18.48222401 23 06.379-24 37 15.33         21.25GVES150F52
     K23R29S  C2023 09 18.49254401 23 10.840-24 38 53.30         21.22GVES150F52
     K23R29S  C2023 09 18.50278501 23 15.238-24 40 28.88         22.55GVES150F52
Observer details:
F51 Pan-STARRS 1, Haleakala.  Observers J. Bulger, T. Lowe, P. Minguez, A.
    Schultz, I. Smith, K. Chambers.  Measurers K. Chambers, T. de Boer, J.
    Bulger, J. Fairlamb, H. Gao, M. Huber, C.-C. Lin, T. Lowe, E. Magnier, P.
    Minguez, Y. Ramanjooloo, A. Schultz, I. Smith, R. Wainscoat, R. Weryk, S.
    Chastel.  1.8-m Ritchey-Chretien + CCD.
F52 Pan-STARRS 2, Haleakala.  Observers J. Bulger, K. Chambers, T. Dukes, T.
    Lowe, P. Minguez, A. Schultz, I. Smith.  Measurers S. Chastel, J.
    Fairlamb, M. Huber, Y. Ramanjooloo, R. Wainscoat, R. Weryk.  1.8-m
    Ritchey-Chretien + CCD.
J04 ESA Optical Ground Station, Tenerife.  Observers P. Ruiz, M. Micheli, F.
    Ocana, L. Conversi.  Measurers R. Kresken, M. Micheli, F. Ocana, A.
    Knofel, M. Busch, E. Schwab.  1.0-m f/4.4 reflector + CCD.
Orbital elements:
2023 RS29                                                Earth MOID = 0.0234 AU
Epoch 2023 Sept. 13.0 TT = JDT 2460200.5                Bell                    
M  12.70547              (2000.0)            P               Q                  
n   0.72485755     Peri.  162.52743     +0.88431740     +0.46578157             
a   1.2273477      Node   169.53506     -0.44669029     +0.86406429             
e   0.1655026      Incl.   10.17859     -0.13583269     +0.19089377             
P   1.36           H   27.52          G   0.15           U   8                  
Residuals in seconds of arc
230915 F51  0.1-  0.4+    230915 F51  0.0   0.3+    230918 F52  0.2-  0.0
230915 F51  0.0   0.2+    230915 F51  0.3+  0.2+    230918 F52  0.4+  0.4-
230915 F51  0.2+  0.2+    230916 J04  0.1-  0.0     230918 F52  0.2+  0.4-
230915 F51  0.1+  0.1+    230916 J04  0.0   0.2-    230918 F52  0.3-  0.7+
Ephemeris:
2023 RS29                a,e,i = 1.23, 0.17, 10                  q = 1.0242
Date    TT    R. A. (2000) Decl.     Delta      r    Elong.  Phase     V
2023 08 22    18 20 53.4 +54 39 15   0.06942 1.0245    98.7    77.4    24.5
...
2023 09 06    21 50 10.5 +39 56 23   0.02803 1.0268   130.9    48.0    21.6
...
2023 09 14    00 31 13.2 -07 18 50   0.02708 1.0321   163.3    16.3    20.6
...
2023 09 20    01 35 31.2 -28 06 20   0.04158 1.0380   142.8    35.8    22.2
2023 09 21    01 42 38.9 -30 00 17   0.04452 1.0391   140.7    37.8    22.4
2023 09 22    01 49 02.1 -31 37 45   0.04755 1.0402   138.8    39.5    22.6
...
2023 09 28    02 15 48.8 -37 38 43   0.06676 1.0480   131.8    45.4    23.5
...
2023 10 06    02 32 58.2 -40 47 13   0.09369 1.0604   128.1    47.9    24.3
...
2023 10 21    02 40 34.2 -41 05 42   0.1458  1.0891   126.7    47.2    25.3
M. P. C. Staff               (C) Copyright 2023 MPC           M.P.E.C. 2023-S150
    
    
More information about the Iaude
mailing list